Location: Newark
(33.6333°S, 78.8500°W)
Time: 20:08:03
(UTC+00:00)

Tiros 1 - Pass Details

Date: 27 October 2019
Orbit: 630 x 664 km, 48.4° (Epoch: 17 November)

Event Time Altitude Azimuth Distance (km) Brightness Sun altitude
Rises 21:47:55 0° 228° (SW) 2,946 11.3 21.9°
Reaches altitude 10° 21:50:20 10° 222° (SW) 2,030 10.5 21.4°
Maximum altitude 21:54:53 50° 146° (SE) 809 7.7 20.4°
Drops below altitude 10° 21:59:23 10° 70° (ENE) 2,012 9.2 19.5°
Sets 22:01:45 0° 65° (ENE) 2,917 10.0 19.0°
